Showing default

QIANFAN-45, 62246

Orbit data source: Space-Track

QIANFAN-45, 62246 is a Chinese payload satellite in LEO that was launched on Thu, 05 Dec 2024 UTC via a CHANG ZHENG 6A launch vehicle from the Taiyaun Space Center, China (TSC). Payloads include a variety of satellites, spacecraft, and rockets equipped with specific instruments for various scientific and technological missions. These include communications satellites like Starlink; space stations such as the ISS; scientific satellites like the Hubble; Earth observation satellites from companies like Planet Labs, Umbra, and HawkEye 360; GPS; miniature CubeSats for education and research; and military/defense satellites.

Loading next visibility...
QIANFAN-45 details
Identifier
62246, 2024-232K
Orbit
LEO
Last TLE update18 hours ago
Origin
Flag of CNYUANX (CN / PRC)
ManufacturerSECM
MissionOperational Commercial Communications
Bus & MotorQIANFAN, Unknown motor
Mass300 kg wet, ~300 kg dry
Launch date (UTC)
2024-12-05 (2 months ago)
Launch vehicle
CHANG ZHENG 6A
Launch site
Taiyaun Space Center, China (TSC)
Object type
Payload
Rocket body
Debris
Shape & HBRBox + 1 Pan, 10 m
Radar Cross Section13.200 m², Large (>1 m²)

Expand to show TLE details & history

TLE from 18 hours ago
0 QIANFAN-45
1 62246U 24232K   25035.53679656  .00000455  00000-0  20347-3 0  9998
2 62246  88.9886  73.0917 0016050  29.4699 330.7393 14.20879510 57060
Epoch: 2025-02-04T12:52Z
Definitive object data (Epoch: 2025-02-04T12:52:59.222Z)
Latitude-0.00003°
Longitude104.90427°
Altitude815.354 km
Speed7.451 km/s
True Right ascension04h 52m 22s
True Declination0° 00' 00"
Sunlit
Object was in daylight at TLE epoch
Visualization TLE readout
Latitude-57.43836°
Longitude-73.60611°
Altitude854.71 km
Speed7.419 km/s
Apparent Right ascension19h 12m 02s
Apparent Declination-52° 56' 59"
Sunlit
Object is in daylight
Visualization observer readout
Local Sidereal Time08:56:07
Azimuth135.041° SSE
Elevation-68.032°
Doppler factor1
Orbital elements
Apogee altitude830.882 km
Perigee altitude807.778 km
Semi-major axis7,197.467 km
Eccentricity0.001605
Inclination88.9886°
RAAN73.0917°
Arg. of periapsis29.4699°
True anomaly330.64925°
Mean anomaly330.7393°
Eccentric anomaly330.69429°
Mean motion3.55446 °/min
BSTAR0.00020347
Orbital period101.28 mins
Loading maneuver chart data...
Loading historical data...
Loading historical data...
Loading historical data...
Loading historical data...
Loading historical data...
Loading historical data...
Loading historical data...

QIANFAN-45 Visibility forecast

Observer location: undefined°, undefined

Span
Click to sort rows by Start time (UTC) header in descending order
Start Az.
Max El. time (UTC)
Max El. Az.
Max El.
End time (UTC)
End Az.
8 mins2025-02-05 14:49:52.887Z355.319° N2025-02-05 14:53:52.887Z231.583° WSW43.475°2025-02-05 14:57:52.887Z189.621° SSW
8 mins2025-02-06 02:11:52.887Z144.574° SSE2025-02-06 02:14:52.887Z96.367° ESE33.768°2025-02-06 02:19:52.887Z14.923° NNE
6 mins2025-02-06 03:53:52.887Z239.238° WSW2025-02-06 03:56:52.887Z280.032° WNW20.164°2025-02-06 03:59:52.887Z320.22° NNW
|